CDT,Max TemperatureF,Mean TemperatureF,Min TemperatureF,Max Dew PointF,MeanDew PointF,Min DewpointF,Max Humidity, Mean Humidity, Min Humidity, Max Sea Level PressureIn, Mean Sea Level PressureIn, Min Sea Level PressureIn, Max VisibilityMiles, Mean VisibilityMiles, Min VisibilityMiles, Max Wind SpeedMPH, Mean Wind SpeedMPH, Max Gust SpeedMPH,PrecipitationIn, CloudCover, Events, WindDirDegrees
2013-6-1,73,64,53,57,53,47,97,73,44,29.81,29.67,29.61,10,10,5,21,6,31,0.02,,Rain,268
2013-6-2,62,52,41,44,40,37,96,65,40,30.05,29.99,29.83,10,10,10,14,9,23,0.00,,,331
2013-6-3,69,51,33,49,40,33,100,65,33,30.10,30.06,30.01,10,10,10,9,1,,0.00,,,256
2013-6-4,55,53,51,54,51,47,96,92,77,30.17,30.13,30.06,10,9,4,14,3,,0.17,,Rain-Thunderstorm,81
2013-6-5,57,54,50,55,52,49,98,94,90,30.12,30.03,29.95,10,7,1,10,5,,0.19,,Rain,93
2013-6-6,57,54,51,54,52,50,97,93,84,30.01,29.97,29.93,10,6,2,8,5,,0.02,,,67
2013-6-7,70,60,50,52,48,44,95,70,41,30.03,29.98,29.93,10,10,10,7,1,,0.00,,,358
2013-6-8,69,60,50,57,53,50,97,81,55,29.98,29.96,29.94,10,10,3,14,3,21,0.05,,Rain-Thunderstorm,103
2013-6-9,71,62,54,64,56,50,96,83,58,29.98,29.89,29.83,10,9,1,16,7,24,0.52,,Rain,101
2013-6-10,76,66,56,62,59,55,99,81,51,29.88,29.84,29.80,10,6,0,9,2,,0.14,,Fog,278
2013-6-11,78,64,50,68,60,50,100,81,60,29.92,29.88,29.84,10,8,0,6,1,,0.00,,Fog-Rain-Thunderstorm,292
2013-6-12,77,68,60,67,63,58,98,87,63,29.91,29.82,29.71,10,8,1,12,5,28,0.22,,Rain-Thunderstorm,67
2013-6-13,78,64,51,58,53,49,98,68,37,30.09,30.00,29.84,10,10,5,15,4,22,0.01,,,354
2013-6-14,78,64,49,58,52,48,95,65,36,30.16,30.07,29.96,10,10,10,12,3,18,0.00,,Rain,134
2013-6-15,79,68,59,66,61,57,96,79,61,30.03,29.93,29.83,10,10,4,12,4,18,0.32,,Rain-Thunderstorm,201
2013-6-16,83,68,52,64,52,41,99,64,23,29.92,29.91,29.88,10,9,0,15,3,24,0.00,,Fog,283
2013-6-17,83,68,52,58,53,45,97,61,26,29.99,29.92,29.89,10,10,10,18,4,25,0.00,,Thunderstorm,317
2013-6-18,75,64,53,57,48,39,83,56,34,30.11,30.07,29.99,10,10,10,12,6,20,0.00,,,85
2013-6-19,79,61,43,58,50,43,97,64,39,30.15,30.10,30.04,10,10,10,9,2,,0.00,,,164
2013-6-20,87,70,54,57,54,50,94,56,28,30.11,30.06,30.00,10,10,10,16,4,23,0.00,,,170
2013-6-21,79,71,63,68,63,57,97,76,49,30.04,29.97,29.85,10,10,2,20,7,29,0.61,,Rain-Thunderstorm,159
2013-6-22,83,73,63,70,65,62,96,83,52,30.11,29.96,29.89,10,10,1,14,6,41,0.93,,Rain-Thunderstorm,157
2013-6-23,82,72,62,68,64,60,96,74,49,30.02,29.90,29.83,10,9,4,17,7,26,0.23,,Rain-Thunderstorm,189
2013-6-24,80,70,61,68,64,60,97,83,64,29.99,29.92,29.86,10,10,10,15,2,18,0.00,,Rain-Thunderstorm,193
2013-6-25,84,74,64,72,67,64,97,82,60,29.91,29.84,29.77,10,10,5,9,3,,0.07,,Rain-Thunderstorm,143
2013-6-26,85,76,66,72,68,65,97,80,51,29.79,29.75,29.72,10,8,0,10,2,16,0.00,,Fog,194
2013-6-27,87,74,61,68,60,51,97,63,32,29.83,29.79,29.75,10,9,2,20,4,30,0.00,,,279
2013-6-28,75,64,55,65,59,53,96,78,55,29.78,29.73,29.69,10,10,4,17,5,24,0.21,,Rain-Thunderstorm,299
2013-6-29,69,63,57,63,59,53,100,84,67,29.92,29.79,29.70,10,10,7,13,5,28,0.01,,Rain,1
2013-6-30,79,66,52,54,48,38,94,58,23,30.10,30.03,29.93,10,10,10,13,4,17,0.00,,,7